Check out our new PWSWeather beta!
PWSweather.com
Personal Weather Stations
Station Observations
PICKERING
North Yorkshire, PickeringGB

North YorkshirePickeringGB

Lat: 54.2494, Lon: -0.7725

Elevation: 192

Station Type: Oregon Scientific WMR100

High Low Average
Temperature 76.3°F24.6°C 49.1°F9.5°C 62.0°F16.7°C
Dew Point 60.8°F16.0°C 39.2°F4.0°C 50.5°F10.3°C
Winds 7.1 mph 11.4 kmh Calm Calm 3.0 mph S4.8 kmh S
Wind Gusts 14.5 mph23.3 kmh -- 5.0 mph8.0 kmh
Humidity 79% 50% 66%
Pressure 30.21 in1023.0 mb 30.09 in1019.0 mb -
Precipitation 0.00 in0.0 mm - -
Hour Temp Dew Point Humidity Winds Wind Gusts Pressure Precip Precip Rate Daily Precip Total
12:00 AM 49.1°F9.5°C 39.2°F4.0°C 66% 2.5 mph NE4.0 kmh NE 3.1 mph5.0 kmh 30.21 in1023.0 mb 0.00 in0.0 mm 0.00 in0.0 mm 0.00 in0.0 mm
12:05 AM 49.1°F9.5°C 39.2°F4.0°C 66% 2.3 mph NE3.7 kmh NE 2.7 mph4.3 kmh 30.21 in1023.0 mb 0.00 in0.0 mm 0.00 in0.0 mm 0.00 in0.0 mm
12:10 AM 49.1°F9.5°C 39.2°F4.0°C 66% 2.3 mph NNE3.7 kmh NNE 2.9 mph4.7 kmh 30.21 in1023.0 mb 0.00 in0.0 mm 0.00 in0.0 mm 0.00 in0.0 mm
12:15 AM 49.3°F9.6°C 39.2°F4.0°C 66% 2.4 mph NNE3.9 kmh NNE 2.9 mph4.7 kmh 30.21 in1023.0 mb 0.00 in0.0 mm 0.00 in0.0 mm 0.00 in0.0 mm
12:20 AM 49.5°F9.7°C 39.2°F4.0°C 66% 2.4 mph NNE3.9 kmh NNE 2.9 mph4.7 kmh 30.21 in1023.0 mb 0.00 in0.0 mm 0.00 in0.0 mm 0.00 in0.0 mm
12:25 AM 49.5°F9.7°C 39.2°F4.0°C 66% 2.4 mph NNE3.9 kmh NNE 2.9 mph4.7 kmh 30.21 in1023.0 mb 0.00 in0.0 mm 0.00 in0.0 mm 0.00 in0.0 mm
12:30 AM 49.3°F9.6°C 39.2°F4.0°C 66% 2.3 mph NNE3.7 kmh NNE 2.9 mph4.7 kmh 30.21 in1023.0 mb 0.00 in0.0 mm 0.00 in0.0 mm 0.00 in0.0 mm
12:35 AM 49.3°F9.6°C 39.2°F4.0°C 67% 2.0 mph NNE3.2 kmh NNE 3.1 mph5.0 kmh 30.21 in1023.0 mb 0.00 in0.0 mm 0.00 in0.0 mm 0.00 in0.0 mm
12:40 AM 49.3°F9.6°C 39.2°F4.0°C 67% 2.2 mph NNE3.5 kmh NNE 3.4 mph5.5 kmh 30.21 in1023.0 mb 0.00 in0.0 mm 0.00 in0.0 mm 0.00 in0.0 mm
12:45 AM 49.3°F9.6°C 39.2°F4.0°C 67% 2.6 mph NNE4.2 kmh NNE 3.4 mph5.5 kmh 30.21 in1023.0 mb 0.00 in0.0 mm 0.00 in0.0 mm 0.00 in0.0 mm
12:50 AM 49.3°F9.6°C 39.2°F4.0°C 67% 2.7 mph NE4.3 kmh NE 2.9 mph4.7 kmh 30.21 in1023.0 mb 0.00 in0.0 mm 0.00 in0.0 mm 0.00 in0.0 mm
12:55 AM 49.3°F9.6°C 39.2°F4.0°C 67% 2.4 mph NE3.9 kmh NE 2.9 mph4.7 kmh 30.21 in1023.0 mb 0.00 in0.0 mm 0.00 in0.0 mm 0.00 in0.0 mm
01:00 AM 49.6°F9.8°C 39.2°F4.0°C 67% 2.3 mph NE3.7 kmh NE 3.1 mph5.0 kmh 30.21 in1023.0 mb 0.00 in0.0 mm 0.00 in0.0 mm 0.00 in0.0 mm
01:05 AM 49.6°F9.8°C 39.2°F4.0°C 67% 2.3 mph NE3.7 kmh NE 3.1 mph5.0 kmh 30.21 in1023.0 mb 0.00 in0.0 mm 0.00 in0.0 mm 0.00 in0.0 mm
01:10 AM 49.6°F9.8°C 39.2°F4.0°C 68% 1.5 mph NE2.4 kmh NE 2.9 mph4.7 kmh 30.21 in1023.0 mb 0.00 in0.0 mm 0.00 in0.0 mm 0.00 in0.0 mm
01:15 AM 49.6°F9.8°C 39.2°F4.0°C 68% 0.9 mph NNE1.4 kmh NNE 2.7 mph4.3 kmh 30.21 in1023.0 mb 0.00 in0.0 mm 0.00 in0.0 mm 0.00 in0.0 mm
01:20 AM 50.0°F10.0°C 41.0°F5.0°C 69% 1.1 mph NNE1.8 kmh NNE 2.7 mph4.3 kmh 30.21 in1023.0 mb 0.00 in0.0 mm 0.00 in0.0 mm 0.00 in0.0 mm
01:25 AM 50.2°F10.1°C 41.0°F5.0°C 69% 1.5 mph NNE2.4 kmh NNE 2.7 mph4.3 kmh 30.18 in1022.0 mb 0.00 in0.0 mm 0.00 in0.0 mm 0.00 in0.0 mm
01:30 AM 50.2°F10.1°C 41.0°F5.0°C 69% 1.0 mph NNE1.6 kmh NNE 2.7 mph4.3 kmh 30.18 in1022.0 mb 0.00 in0.0 mm 0.00 in0.0 mm 0.00 in0.0 mm
01:35 AM 50.4°F10.2°C 41.0°F5.0°C 69% 0.7 mph NE1.1 kmh NE 2.7 mph4.3 kmh 30.18 in1022.0 mb 0.00 in0.0 mm 0.00 in0.0 mm 0.00 in0.0 mm
01:40 AM 50.5°F10.3°C 41.0°F5.0°C 70% 0.5 mph NE0.8 kmh NE 2.2 mph3.5 kmh 30.21 in1023.0 mb 0.00 in0.0 mm 0.00 in0.0 mm 0.00 in0.0 mm
01:45 AM 50.5°F10.3°C 41.0°F5.0°C 70% 0.4 mph N0.6 kmh N 2.0 mph3.2 kmh 30.21 in1023.0 mb 0.00 in0.0 mm 0.00 in0.0 mm 0.00 in0.0 mm
01:50 AM 50.5°F10.3°C 41.0°F5.0°C 70% 0.9 mph NNW1.4 kmh NNW 2.0 mph3.2 kmh 30.21 in1023.0 mb 0.00 in0.0 mm 0.00 in0.0 mm 0.00 in0.0 mm
01:55 AM 50.7°F10.4°C 42.8°F6.0°C 71% 0.9 mph NNW1.4 kmh NNW 2.0 mph3.2 kmh 30.21 in1023.0 mb 0.00 in0.0 mm 0.00 in0.0 mm 0.00 in0.0 mm
02:00 AM 50.9°F10.5°C 42.8°F6.0°C 71% 0.3 mph NW0.5 kmh NW 1.3 mph2.1 kmh 30.21 in1023.0 mb 0.00 in0.0 mm 0.00 in0.0 mm 0.00 in0.0 mm
02:05 AM 51.1°F10.6°C 42.8°F6.0°C 71% Calm Calm -- 30.21 in1023.0 mb 0.00 in0.0 mm 0.00 in0.0 mm 0.00 in0.0 mm
02:10 AM 51.1°F10.6°C 42.8°F6.0°C 71% Calm Calm -- 30.21 in1023.0 mb 0.00 in0.0 mm 0.00 in0.0 mm 0.00 in0.0 mm
02:15 AM 51.3°F10.7°C 42.8°F6.0°C 71% Calm Calm -- 30.21 in1023.0 mb 0.00 in0.0 mm 0.00 in0.0 mm 0.00 in0.0 mm
02:20 AM 51.3°F10.7°C 42.8°F6.0°C 72% 0.2 mph SSW0.3 kmh SSW 1.3 mph2.1 kmh 30.21 in1023.0 mb 0.00 in0.0 mm 0.00 in0.0 mm 0.00 in0.0 mm
02:25 AM 51.4°F10.8°C 42.8°F6.0°C 72% 0.2 mph SSW0.3 kmh SSW 1.3 mph2.1 kmh 30.18 in1022.0 mb 0.00 in0.0 mm 0.00 in0.0 mm 0.00 in0.0 mm
02:30 AM 51.6°F10.9°C 42.8°F6.0°C 73% 0.1 mph SSW0.2 kmh SSW 1.3 mph2.1 kmh 30.18 in1022.0 mb 0.00 in0.0 mm 0.00 in0.0 mm 0.00 in0.0 mm
02:35 AM 51.6°F10.9°C 42.8°F6.0°C 73% Calm Calm -- 30.18 in1022.0 mb 0.00 in0.0 mm 0.00 in0.0 mm 0.00 in0.0 mm
02:40 AM 51.8°F11.0°C 42.8°F6.0°C 73% Calm Calm -- 30.18 in1022.0 mb 0.00 in0.0 mm 0.00 in0.0 mm 0.00 in0.0 mm
02:45 AM 52.0°F11.1°C 42.8°F6.0°C 73% Calm Calm -- 30.18 in1022.0 mb 0.00 in0.0 mm 0.00 in0.0 mm 0.00 in0.0 mm
02:50 AM 52.0°F11.1°C 44.6°F7.0°C 74% Calm Calm -- 30.18 in1022.0 mb 0.00 in0.0 mm 0.00 in0.0 mm 0.00 in0.0 mm
02:55 AM 52.0°F11.1°C 44.6°F7.0°C 74% Calm Calm -- 30.18 in1022.0 mb 0.00 in0.0 mm 0.00 in0.0 mm 0.00 in0.0 mm
03:00 AM 52.2°F11.2°C 44.6°F7.0°C 74% Calm Calm -- 30.18 in1022.0 mb 0.00 in0.0 mm 0.00 in0.0 mm 0.00 in0.0 mm
03:05 AM 52.2°F11.2°C 44.6°F7.0°C 74% Calm Calm -- 30.18 in1022.0 mb 0.00 in0.0 mm 0.00 in0.0 mm 0.00 in0.0 mm
03:10 AM 52.2°F11.2°C 44.6°F7.0°C 74% 0.1 mph NNE0.2 kmh NNE 0.9 mph1.4 kmh 30.18 in1022.0 mb 0.00 in0.0 mm 0.00 in0.0 mm 0.00 in0.0 mm
03:15 AM 52.3°F11.3°C 44.6°F7.0°C 75% 0.1 mph NNE0.2 kmh NNE 0.9 mph1.4 kmh 30.18 in1022.0 mb 0.00 in0.0 mm 0.00 in0.0 mm 0.00 in0.0 mm
03:20 AM 52.3°F11.3°C 44.6°F7.0°C 75% Calm Calm -- 30.18 in1022.0 mb 0.00 in0.0 mm 0.00 in0.0 mm 0.00 in0.0 mm
03:25 AM 52.5°F11.4°C 44.6°F7.0°C 75% Calm Calm -- 30.18 in1022.0 mb 0.00 in0.0 mm 0.00 in0.0 mm 0.00 in0.0 mm
03:30 AM 52.3°F11.3°C 44.6°F7.0°C 75% 0.1 mph NNE0.2 kmh NNE 2.0 mph3.2 kmh 30.18 in1022.0 mb 0.00 in0.0 mm 0.00 in0.0 mm 0.00 in0.0 mm
03:35 AM 52.5°F11.4°C 44.6°F7.0°C 75% 0.1 mph NNE0.2 kmh NNE 2.0 mph3.2 kmh 30.18 in1022.0 mb 0.00 in0.0 mm 0.00 in0.0 mm 0.00 in0.0 mm
03:40 AM 52.5°F11.4°C 44.6°F7.0°C 76% 0.3 mph NNE0.5 kmh NNE 1.3 mph2.1 kmh 30.18 in1022.0 mb 0.00 in0.0 mm 0.00 in0.0 mm 0.00 in0.0 mm
03:45 AM 52.7°F11.5°C 46.4°F8.0°C 76% 0.3 mph NNE0.5 kmh NNE 1.3 mph2.1 kmh 30.18 in1022.0 mb 0.00 in0.0 mm 0.00 in0.0 mm 0.00 in0.0 mm
03:50 AM 52.7°F11.5°C 46.4°F8.0°C 76% 0.2 mph NNE0.3 kmh NNE 1.3 mph2.1 kmh 30.18 in1022.0 mb 0.00 in0.0 mm 0.00 in0.0 mm 0.00 in0.0 mm
03:55 AM 52.7°F11.5°C 46.4°F8.0°C 76% Calm Calm -- 30.18 in1022.0 mb 0.00 in0.0 mm 0.00 in0.0 mm 0.00 in0.0 mm
04:00 AM 52.5°F11.4°C 44.6°F7.0°C 76% 0.4 mph NNE0.6 kmh NNE 2.2 mph3.5 kmh 30.18 in1022.0 mb 0.00 in0.0 mm 0.00 in0.0 mm 0.00 in0.0 mm
04:05 AM 52.7°F11.5°C 46.4°F8.0°C 76% 0.4 mph NNE0.6 kmh NNE 2.2 mph3.5 kmh 30.18 in1022.0 mb 0.00 in0.0 mm 0.00 in0.0 mm 0.00 in0.0 mm
04:10 AM 52.7°F11.5°C 46.4°F8.0°C 76% Calm Calm -- 30.18 in1022.0 mb 0.00 in0.0 mm 0.00 in0.0 mm 0.00 in0.0 mm
04:15 AM 52.7°F11.5°C 46.4°F8.0°C 76% Calm Calm -- 30.18 in1022.0 mb 0.00 in0.0 mm 0.00 in0.0 mm 0.00 in0.0 mm
04:20 AM 52.7°F11.5°C 46.4°F8.0°C 76% 0.1 mph NNE0.2 kmh NNE 1.1 mph1.8 kmh 30.18 in1022.0 mb 0.00 in0.0 mm 0.00 in0.0 mm 0.00 in0.0 mm
04:25 AM 52.7°F11.5°C 46.4°F8.0°C 76% 0.1 mph NNE0.2 kmh NNE 1.1 mph1.8 kmh 30.18 in1022.0 mb 0.00 in0.0 mm 0.00 in0.0 mm 0.00 in0.0 mm
04:30 AM 52.7°F11.5°C 46.4°F8.0°C 76% 0.1 mph N0.2 kmh N 1.3 mph2.1 kmh 30.18 in1022.0 mb 0.00 in0.0 mm 0.00 in0.0 mm 0.00 in0.0 mm
04:35 AM 52.9°F11.6°C 46.4°F8.0°C 76% 0.1 mph NNW0.2 kmh NNW 1.3 mph2.1 kmh 30.18 in1022.0 mb 0.00 in0.0 mm 0.00 in0.0 mm 0.00 in0.0 mm
04:40 AM 52.9°F11.6°C 46.4°F8.0°C 77% Calm Calm -- 30.18 in1022.0 mb 0.00 in0.0 mm 0.00 in0.0 mm 0.00 in0.0 mm
04:45 AM 53.1°F11.7°C 46.4°F8.0°C 77% Calm Calm -- 30.18 in1022.0 mb 0.00 in0.0 mm 0.00 in0.0 mm 0.00 in0.0 mm
04:50 AM 53.1°F11.7°C 46.4°F8.0°C 77% Calm Calm -- 30.18 in1022.0 mb 0.00 in0.0 mm 0.00 in0.0 mm 0.00 in0.0 mm
04:55 AM 53.2°F11.8°C 46.4°F8.0°C 77% Calm Calm -- 30.18 in1022.0 mb 0.00 in0.0 mm 0.00 in0.0 mm 0.00 in0.0 mm
05:00 AM 53.2°F11.8°C 46.4°F8.0°C 77% Calm Calm -- 30.18 in1022.0 mb 0.00 in0.0 mm 0.00 in0.0 mm 0.00 in0.0 mm
05:05 AM 53.4°F11.9°C 46.4°F8.0°C 77% Calm Calm -- 30.18 in1022.0 mb 0.00 in0.0 mm 0.00 in0.0 mm 0.00 in0.0 mm
05:10 AM 53.4°F11.9°C 46.4°F8.0°C 77% 0.4 mph SW0.6 kmh SW 2.0 mph3.2 kmh 30.18 in1022.0 mb 0.00 in0.0 mm 0.00 in0.0 mm 0.00 in0.0 mm
05:15 AM 53.6°F12.0°C 48.2°F9.0°C 78% 0.4 mph SW0.6 kmh SW 2.0 mph3.2 kmh 30.18 in1022.0 mb 0.00 in0.0 mm 0.00 in0.0 mm 0.00 in0.0 mm
05:20 AM 53.8°F12.1°C 48.2°F9.0°C 78% 0.2 mph SW0.3 kmh SW 1.6 mph2.6 kmh 30.18 in1022.0 mb 0.00 in0.0 mm 0.00 in0.0 mm 0.00 in0.0 mm
05:25 AM 53.8°F12.1°C 48.2°F9.0°C 78% Calm Calm -- 30.18 in1022.0 mb 0.00 in0.0 mm 0.00 in0.0 mm 0.00 in0.0 mm
05:30 AM 54.0°F12.2°C 48.2°F9.0°C 78% Calm Calm -- 30.18 in1022.0 mb 0.00 in0.0 mm 0.00 in0.0 mm 0.00 in0.0 mm
05:35 AM 54.0°F12.2°C 48.2°F9.0°C 78% Calm Calm -- 30.18 in1022.0 mb 0.00 in0.0 mm 0.00 in0.0 mm 0.00 in0.0 mm
05:40 AM 54.0°F12.2°C 48.2°F9.0°C 78% Calm Calm -- 30.18 in1022.0 mb 0.00 in0.0 mm 0.00 in0.0 mm 0.00 in0.0 mm
05:45 AM 54.1°F12.3°C 48.2°F9.0°C 78% 0.1 mph SSE0.2 kmh SSE 0.9 mph1.4 kmh 30.18 in1022.0 mb 0.00 in0.0 mm 0.00 in0.0 mm 0.00 in0.0 mm
05:50 AM 54.3°F12.4°C 48.2°F9.0°C 78% 0.3 mph SSW0.5 kmh SSW 1.3 mph2.1 kmh 30.18 in1022.0 mb 0.00 in0.0 mm 0.00 in0.0 mm 0.00 in0.0 mm
05:55 AM 54.3°F12.4°C 48.2°F9.0°C 78% 0.4 mph S0.6 kmh S 1.3 mph2.1 kmh 30.18 in1022.0 mb 0.00 in0.0 mm 0.00 in0.0 mm 0.00 in0.0 mm
06:00 AM 54.5°F12.5°C 48.2°F9.0°C 78% 0.1 mph SSE0.2 kmh SSE 1.1 mph1.8 kmh 30.18 in1022.0 mb 0.00 in0.0 mm 0.00 in0.0 mm 0.00 in0.0 mm
06:05 AM 54.7°F12.6°C 48.2°F9.0°C 78% Calm Calm -- 30.18 in1022.0 mb 0.00 in0.0 mm 0.00 in0.0 mm 0.00 in0.0 mm
06:10 AM 54.9°F12.7°C 48.2°F9.0°C 78% 0.5 mph SSE0.8 kmh SSE 2.2 mph3.5 kmh 30.21 in1023.0 mb 0.00 in0.0 mm 0.00 in0.0 mm 0.00 in0.0 mm
06:15 AM 55.0°F12.8°C 50.0°F10.0°C 79% 1.0 mph SSW1.6 kmh SSW 2.2 mph3.5 kmh 30.21 in1023.0 mb 0.00 in0.0 mm 0.00 in0.0 mm 0.00 in0.0 mm
06:20 AM 55.2°F12.9°C 50.0°F10.0°C 79% 1.0 mph SW1.6 kmh SW 2.7 mph4.3 kmh 30.21 in1023.0 mb 0.00 in0.0 mm 0.00 in0.0 mm 0.00 in0.0 mm
06:25 AM 55.2°F12.9°C 50.0°F10.0°C 79% 0.5 mph S0.8 kmh S 2.7 mph4.3 kmh 30.21 in1023.0 mb 0.00 in0.0 mm 0.00 in0.0 mm 0.00 in0.0 mm
06:30 AM 55.4°F13.0°C 50.0°F10.0°C 79% Calm Calm -- 30.21 in1023.0 mb 0.00 in0.0 mm 0.00 in0.0 mm 0.00 in0.0 mm
06:35 AM 55.6°F13.1°C 50.0°F10.0°C 79% 0.7 mph S1.1 kmh S 2.9 mph4.7 kmh 30.21 in1023.0 mb 0.00 in0.0 mm 0.00 in0.0 mm 0.00 in0.0 mm
06:40 AM 55.6°F13.1°C 50.0°F10.0°C 79% 1.2 mph SSW1.9 kmh SSW 2.9 mph4.7 kmh 30.21 in1023.0 mb 0.00 in0.0 mm 0.00 in0.0 mm 0.00 in0.0 mm
06:45 AM 55.8°F13.2°C 50.0°F10.0°C 79% 1.0 mph SSW1.6 kmh SSW 2.9 mph4.7 kmh 30.21 in1023.0 mb 0.00 in0.0 mm 0.00 in0.0 mm 0.00 in0.0 mm
06:50 AM 55.9°F13.3°C 50.0°F10.0°C 79% 0.9 mph S1.4 kmh S 3.1 mph5.0 kmh 30.21 in1023.0 mb 0.00 in0.0 mm 0.00 in0.0 mm 0.00 in0.0 mm
06:55 AM 56.1°F13.4°C 50.0°F10.0°C 79% 0.8 mph SSW1.3 kmh SSW 3.1 mph5.0 kmh 30.21 in1023.0 mb 0.00 in0.0 mm 0.00 in0.0 mm 0.00 in0.0 mm
07:00 AM 56.3°F13.5°C 50.0°F10.0°C 79% 0.2 mph W0.3 kmh W 2.7 mph4.3 kmh 30.21 in1023.0 mb 0.00 in0.0 mm 0.00 in0.0 mm 0.00 in0.0 mm
07:05 AM 56.7°F13.7°C 50.0°F10.0°C 79% 0.3 mph W0.5 kmh W 1.6 mph2.6 kmh 30.21 in1023.0 mb 0.00 in0.0 mm 0.00 in0.0 mm 0.00 in0.0 mm
07:10 AM 56.8°F13.8°C 50.0°F10.0°C 79% 0.4 mph W0.6 kmh W 1.6 mph2.6 kmh 30.21 in1023.0 mb 0.00 in0.0 mm 0.00 in0.0 mm 0.00 in0.0 mm
07:15 AM 57.0°F13.9°C 51.8°F11.0°C 79% 0.3 mph WSW0.5 kmh WSW 1.6 mph2.6 kmh 30.21 in1023.0 mb 0.00 in0.0 mm 0.00 in0.0 mm 0.00 in0.0 mm
07:20 AM 57.2°F14.0°C 51.8°F11.0°C 79% 0.3 mph WSW0.5 kmh WSW 1.6 mph2.6 kmh 30.21 in1023.0 mb 0.00 in0.0 mm 0.00 in0.0 mm 0.00 in0.0 mm
07:25 AM 57.4°F14.1°C 51.8°F11.0°C 79% 0.8 mph SW1.3 kmh SW 2.9 mph4.7 kmh 30.21 in1023.0 mb 0.00 in0.0 mm 0.00 in0.0 mm 0.00 in0.0 mm
07:30 AM 57.7°F14.3°C 51.8°F11.0°C 79% 1.2 mph SW1.9 kmh SW 2.9 mph4.7 kmh 30.21 in1023.0 mb 0.00 in0.0 mm 0.00 in0.0 mm 0.00 in0.0 mm
07:35 AM 57.9°F14.4°C 51.8°F11.0°C 79% 0.6 mph SW1.0 kmh SW 2.7 mph4.3 kmh 30.21 in1023.0 mb 0.00 in0.0 mm 0.00 in0.0 mm 0.00 in0.0 mm
07:40 AM 58.1°F14.5°C 51.8°F11.0°C 78% 1.0 mph S1.6 kmh S 3.1 mph5.0 kmh 30.21 in1023.0 mb 0.00 in0.0 mm 0.00 in0.0 mm 0.00 in0.0 mm
07:45 AM 58.3°F14.6°C 51.8°F11.0°C 78% 1.9 mph S3.1 kmh S 4.0 mph6.4 kmh 30.21 in1023.0 mb 0.00 in0.0 mm 0.00 in0.0 mm 0.00 in0.0 mm
07:50 AM 58.5°F14.7°C 51.8°F11.0°C 79% 1.3 mph S2.1 kmh S 4.0 mph6.4 kmh 30.21 in1023.0 mb 0.00 in0.0 mm 0.00 in0.0 mm 0.00 in0.0 mm
07:55 AM 58.8°F14.9°C 53.6°F12.0°C 79% 0.7 mph S1.1 kmh S 2.5 mph4.0 kmh 30.21 in1023.0 mb 0.00 in0.0 mm 0.00 in0.0 mm 0.00 in0.0 mm
08:00 AM 59.4°F15.2°C 53.6°F12.0°C 78% 1.2 mph SW1.9 kmh SW 3.4 mph5.5 kmh 30.21 in1023.0 mb 0.00 in0.0 mm 0.00 in0.0 mm 0.00 in0.0 mm
08:05 AM 60.1°F15.6°C 53.6°F12.0°C 79% 1.3 mph WSW2.1 kmh WSW 3.4 mph5.5 kmh 30.21 in1023.0 mb 0.00 in0.0 mm 0.00 in0.0 mm 0.00 in0.0 mm
08:10 AM 60.6°F15.9°C 53.6°F12.0°C 78% 2.1 mph SW3.4 kmh SW 3.6 mph5.8 kmh 30.21 in1023.0 mb 0.00 in0.0 mm 0.00 in0.0 mm 0.00 in0.0 mm
08:15 AM 61.2°F16.2°C 55.4°F13.0°C 77% 3.2 mph SW5.1 kmh SW 5.4 mph8.7 kmh 30.21 in1023.0 mb 0.00 in0.0 mm 0.00 in0.0 mm 0.00 in0.0 mm
08:20 AM 61.5°F16.4°C 55.4°F13.0°C 77% 3.5 mph WSW5.6 kmh WSW 6.5 mph10.5 kmh 30.21 in1023.0 mb 0.00 in0.0 mm 0.00 in0.0 mm 0.00 in0.0 mm
08:25 AM 61.3°F16.3°C 55.4°F13.0°C 77% 3.8 mph SW6.1 kmh SW 6.5 mph10.5 kmh 30.21 in1023.0 mb 0.00 in0.0 mm 0.00 in0.0 mm 0.00 in0.0 mm
08:30 AM 61.3°F16.3°C 53.6°F12.0°C 76% 4.1 mph S6.6 kmh S 6.5 mph10.5 kmh 30.21 in1023.0 mb 0.00 in0.0 mm 0.00 in0.0 mm 0.00 in0.0 mm
08:35 AM 61.3°F16.3°C 53.6°F12.0°C 76% 4.0 mph WSW6.4 kmh WSW 6.0 mph9.7 kmh 30.21 in1023.0 mb 0.00 in0.0 mm 0.00 in0.0 mm 0.00 in0.0 mm
08:40 AM 61.5°F16.4°C 53.6°F12.0°C 76% 4.4 mph WSW7.1 kmh WSW 7.6 mph12.2 kmh 30.21 in1023.0 mb 0.00 in0.0 mm 0.00 in0.0 mm 0.00 in0.0 mm
08:45 AM 61.7°F16.5°C 55.4°F13.0°C 76% 4.0 mph WSW6.4 kmh WSW 7.6 mph12.2 kmh 30.21 in1023.0 mb 0.00 in0.0 mm 0.00 in0.0 mm 0.00 in0.0 mm
08:50 AM 62.1°F16.7°C 55.4°F13.0°C 76% 3.0 mph W4.8 kmh W 6.7 mph10.8 kmh 30.21 in1023.0 mb 0.00 in0.0 mm 0.00 in0.0 mm 0.00 in0.0 mm
08:55 AM 62.8°F17.1°C 55.4°F13.0°C 75% 2.6 mph WSW4.2 kmh WSW 6.7 mph10.8 kmh 30.21 in1023.0 mb 0.00 in0.0 mm 0.00 in0.0 mm 0.00 in0.0 mm
09:00 AM 63.7°F17.6°C 55.4°F13.0°C 74% 2.9 mph SW4.7 kmh SW 6.5 mph10.5 kmh 30.21 in1023.0 mb 0.00 in0.0 mm 0.00 in0.0 mm 0.00 in0.0 mm
09:05 AM 64.4°F18.0°C 55.4°F13.0°C 74% 4.3 mph SW6.9 kmh SW 5.6 mph9.0 kmh 30.21 in1023.0 mb 0.00 in0.0 mm 0.00 in0.0 mm 0.00 in0.0 mm
09:10 AM 65.5°F18.6°C 57.2°F14.0°C 73% 4.5 mph SW7.2 kmh SW 6.0 mph9.7 kmh 30.21 in1023.0 mb 0.00 in0.0 mm 0.00 in0.0 mm 0.00 in0.0 mm
09:15 AM 65.5°F18.6°C 57.2°F14.0°C 73% 3.9 mph SW6.3 kmh SW 6.0 mph9.7 kmh 30.21 in1023.0 mb 0.00 in0.0 mm 0.00 in0.0 mm 0.00 in0.0 mm
09:20 AM 65.7°F18.7°C 57.2°F14.0°C 72% 3.4 mph SSW5.5 kmh SSW 4.9 mph7.9 kmh 30.21 in1023.0 mb 0.00 in0.0 mm 0.00 in0.0 mm 0.00 in0.0 mm
09:25 AM 66.7°F19.3°C 57.2°F14.0°C 70% 4.2 mph SSW6.8 kmh SSW 5.8 mph9.3 kmh 30.21 in1023.0 mb 0.00 in0.0 mm 0.00 in0.0 mm 0.00 in0.0 mm
09:30 AM 67.6°F19.8°C 57.2°F14.0°C 70% 4.5 mph SSW7.2 kmh SSW 6.3 mph10.1 kmh 30.21 in1023.0 mb 0.00 in0.0 mm 0.00 in0.0 mm 0.00 in0.0 mm
09:35 AM 67.8°F19.9°C 57.2°F14.0°C 70% 3.9 mph SW6.3 kmh SW 6.3 mph10.1 kmh 30.21 in1023.0 mb 0.00 in0.0 mm 0.00 in0.0 mm 0.00 in0.0 mm
09:40 AM 68.2°F20.1°C 57.2°F14.0°C 68% 4.0 mph SW6.4 kmh SW 8.1 mph13.0 kmh 30.21 in1023.0 mb 0.00 in0.0 mm 0.00 in0.0 mm 0.00 in0.0 mm
09:45 AM 67.1°F19.5°C 57.2°F14.0°C 69% 4.8 mph S7.7 kmh S 8.1 mph13.0 kmh 30.21 in1023.0 mb 0.00 in0.0 mm 0.00 in0.0 mm 0.00 in0.0 mm
09:50 AM 66.6°F19.2°C 55.4°F13.0°C 69% 4.7 mph S7.6 kmh S 8.1 mph13.0 kmh 30.21 in1023.0 mb 0.00 in0.0 mm 0.00 in0.0 mm 0.00 in0.0 mm
09:55 AM 66.9°F19.4°C 55.4°F13.0°C 68% 4.1 mph SSW6.6 kmh SSW 7.6 mph12.2 kmh 30.21 in1023.0 mb 0.00 in0.0 mm 0.00 in0.0 mm 0.00 in0.0 mm
10:00 AM 67.5°F19.7°C 57.2°F14.0°C 68% 3.5 mph SW5.6 kmh SW 7.2 mph11.6 kmh 30.21 in1023.0 mb 0.00 in0.0 mm 0.00 in0.0 mm 0.00 in0.0 mm
10:05 AM 67.8°F19.9°C 57.2°F14.0°C 68% 4.0 mph WSW6.4 kmh WSW 7.2 mph11.6 kmh 30.21 in1023.0 mb 0.00 in0.0 mm 0.00 in0.0 mm 0.00 in0.0 mm
10:10 AM 69.3°F20.7°C 57.2°F14.0°C 65% 3.9 mph WSW6.3 kmh WSW 5.6 mph9.0 kmh 30.21 in1023.0 mb 0.00 in0.0 mm 0.00 in0.0 mm 0.00 in0.0 mm
10:15 AM 71.2°F21.8°C 59.0°F15.0°C 64% 4.1 mph SW6.6 kmh SW 6.9 mph11.1 kmh 30.21 in1023.0 mb 0.00 in0.0 mm 0.00 in0.0 mm 0.00 in0.0 mm
10:20 AM 71.6°F22.0°C 59.0°F15.0°C 63% 4.7 mph SSW7.6 kmh SSW 6.9 mph11.1 kmh 30.21 in1023.0 mb 0.00 in0.0 mm 0.00 in0.0 mm 0.00 in0.0 mm
10:25 AM 72.5°F22.5°C 59.0°F15.0°C 61% 4.5 mph SSW7.2 kmh SSW 8.1 mph13.0 kmh 30.21 in1023.0 mb 0.00 in0.0 mm 0.00 in0.0 mm 0.00 in0.0 mm
10:30 AM 74.3°F23.5°C 60.8°F16.0°C 60% 4.7 mph WSW7.6 kmh WSW 8.1 mph13.0 kmh 30.21 in1023.0 mb 0.00 in0.0 mm 0.00 in0.0 mm 0.00 in0.0 mm
10:35 AM 71.8°F22.1°C 57.2°F14.0°C 61% 6.2 mph WSW10.0 kmh WSW 10.5 mph16.9 kmh 30.21 in1023.0 mb 0.00 in0.0 mm 0.00 in0.0 mm 0.00 in0.0 mm
10:40 AM 70.0°F21.1°C 55.4°F13.0°C 62% 6.0 mph SW9.7 kmh SW 10.5 mph16.9 kmh 30.21 in1023.0 mb 0.00 in0.0 mm 0.00 in0.0 mm 0.00 in0.0 mm
10:45 AM 69.1°F20.6°C 55.4°F13.0°C 63% 4.7 mph SW7.6 kmh SW 8.7 mph14.0 kmh 30.21 in1023.0 mb 0.00 in0.0 mm 0.00 in0.0 mm 0.00 in0.0 mm
10:50 AM 68.5°F20.3°C 55.4°F13.0°C 63% 3.8 mph WSW6.1 kmh WSW 7.6 mph12.2 kmh 30.21 in1023.0 mb 0.00 in0.0 mm 0.00 in0.0 mm 0.00 in0.0 mm
10:55 AM 68.0°F20.0°C 55.4°F13.0°C 63% 3.7 mph WSW6.0 kmh WSW 6.0 mph9.7 kmh 30.21 in1023.0 mb 0.00 in0.0 mm 0.00 in0.0 mm 0.00 in0.0 mm
11:00 AM 67.6°F19.8°C 55.4°F13.0°C 64% 5.4 mph SW8.7 kmh SW 11.4 mph18.3 kmh 30.21 in1023.0 mb 0.00 in0.0 mm 0.00 in0.0 mm 0.00 in0.0 mm
11:05 AM 67.6°F19.8°C 55.4°F13.0°C 64% 4.9 mph SW7.9 kmh SW 11.4 mph18.3 kmh 30.21 in1023.0 mb 0.00 in0.0 mm 0.00 in0.0 mm 0.00 in0.0 mm
11:10 AM 68.2°F20.1°C 55.4°F13.0°C 63% 3.1 mph SW5.0 kmh SW 6.5 mph10.5 kmh 30.21 in1023.0 mb 0.00 in0.0 mm 0.00 in0.0 mm 0.00 in0.0 mm
11:15 AM 72.3°F22.4°C 57.2°F14.0°C 60% 3.1 mph WSW5.0 kmh WSW 6.7 mph10.8 kmh 30.21 in1023.0 mb 0.00 in0.0 mm 0.00 in0.0 mm 0.00 in0.0 mm
11:20 AM 74.8°F23.8°C 59.0°F15.0°C 58% 3.5 mph WSW5.6 kmh WSW 6.7 mph10.8 kmh 30.21 in1023.0 mb 0.00 in0.0 mm 0.00 in0.0 mm 0.00 in0.0 mm
11:25 AM 73.9°F23.3°C 59.0°F15.0°C 58% 3.1 mph WSW5.0 kmh WSW 6.0 mph9.7 kmh 30.18 in1022.0 mb 0.00 in0.0 mm 0.00 in0.0 mm 0.00 in0.0 mm
11:30 AM 73.4°F23.0°C 57.2°F14.0°C 58% 3.8 mph SW6.1 kmh SW 6.0 mph9.7 kmh 30.18 in1022.0 mb 0.00 in0.0 mm 0.00 in0.0 mm 0.00 in0.0 mm
11:35 AM 71.6°F22.0°C 57.2°F14.0°C 59% 3.8 mph SSW6.1 kmh SSW 5.8 mph9.3 kmh 30.18 in1022.0 mb 0.00 in0.0 mm 0.00 in0.0 mm 0.00 in0.0 mm
11:40 AM 70.9°F21.6°C 55.4°F13.0°C 59% 3.7 mph WSW6.0 kmh WSW 6.0 mph9.7 kmh 30.18 in1022.0 mb 0.00 in0.0 mm 0.00 in0.0 mm 0.00 in0.0 mm
11:45 AM 72.0°F22.2°C 57.2°F14.0°C 58% 3.8 mph WSW6.1 kmh WSW 6.0 mph9.7 kmh 30.18 in1022.0 mb 0.00 in0.0 mm 0.00 in0.0 mm 0.00 in0.0 mm
11:50 AM 75.7°F24.3°C 59.0°F15.0°C 55% 3.4 mph SW5.5 kmh SW 6.3 mph10.1 kmh 30.18 in1022.0 mb 0.00 in0.0 mm 0.00 in0.0 mm 0.00 in0.0 mm
11:55 AM 72.5°F22.5°C 55.4°F13.0°C 56% 4.8 mph SW7.7 kmh SW 7.8 mph12.6 kmh 30.18 in1022.0 mb 0.00 in0.0 mm 0.00 in0.0 mm 0.00 in0.0 mm
12:00 PM 72.5°F22.5°C 55.4°F13.0°C 56% 4.7 mph SSW7.6 kmh SSW 7.8 mph12.6 kmh 30.18 in1022.0 mb 0.00 in0.0 mm 0.00 in0.0 mm 0.00 in0.0 mm
12:05 PM 72.0°F22.2°C 55.4°F13.0°C 56% 3.6 mph WSW5.8 kmh WSW 6.5 mph10.5 kmh 30.18 in1022.0 mb 0.00 in0.0 mm 0.00 in0.0 mm 0.00 in0.0 mm
12:10 PM 71.8°F22.1°C 55.4°F13.0°C 57% 4.2 mph WSW6.8 kmh WSW 7.8 mph12.6 kmh 30.18 in1022.0 mb 0.00 in0.0 mm 0.00 in0.0 mm 0.00 in0.0 mm
12:15 PM 70.9°F21.6°C 55.4°F13.0°C 58% 6.0 mph WSW9.7 kmh WSW 11.0 mph17.7 kmh 30.18 in1022.0 mb 0.00 in0.0 mm 0.00 in0.0 mm 0.00 in0.0 mm
12:20 PM 70.9°F21.6°C 55.4°F13.0°C 57% 7.1 mph SW11.4 kmh SW 11.0 mph17.7 kmh 30.18 in1022.0 mb 0.00 in0.0 mm 0.00 in0.0 mm 0.00 in0.0 mm
12:25 PM 70.9°F21.6°C 55.4°F13.0°C 57% 6.2 mph SSW10.0 kmh SSW 9.6 mph15.4 kmh 30.18 in1022.0 mb 0.00 in0.0 mm 0.00 in0.0 mm 0.00 in0.0 mm
12:30 PM 71.2°F21.8°C 55.4°F13.0°C 56% 6.1 mph SSW9.8 kmh SSW 9.6 mph15.4 kmh 30.18 in1022.0 mb 0.00 in0.0 mm 0.00 in0.0 mm 0.00 in0.0 mm
12:35 PM 72.0°F22.2°C 55.4°F13.0°C 55% 6.2 mph SSW10.0 kmh SSW 9.4 mph15.1 kmh 30.18 in1022.0 mb 0.00 in0.0 mm 0.00 in0.0 mm 0.00 in0.0 mm
12:40 PM 72.1°F22.3°C 55.4°F13.0°C 54% 5.8 mph SW9.3 kmh SW 9.4 mph15.1 kmh 30.18 in1022.0 mb 0.00 in0.0 mm 0.00 in0.0 mm 0.00 in0.0 mm
12:45 PM 71.6°F22.0°C 55.4°F13.0°C 54% 4.9 mph SSW7.9 kmh SSW 6.5 mph10.5 kmh 30.18 in1022.0 mb 0.00 in0.0 mm 0.00 in0.0 mm 0.00 in0.0 mm
12:50 PM 71.6°F22.0°C 55.4°F13.0°C 54% 3.9 mph SSW6.3 kmh SSW 5.8 mph9.3 kmh 30.18 in1022.0 mb 0.00 in0.0 mm 0.00 in0.0 mm 0.00 in0.0 mm
12:55 PM 73.4°F23.0°C 55.4°F13.0°C 53% 3.6 mph SSW5.8 kmh SSW 5.4 mph8.7 kmh 30.18 in1022.0 mb 0.00 in0.0 mm 0.00 in0.0 mm 0.00 in0.0 mm
01:00 PM 73.0°F22.8°C 55.4°F13.0°C 53% 4.7 mph SW7.6 kmh SW 10.3 mph16.6 kmh 30.18 in1022.0 mb 0.00 in0.0 mm 0.00 in0.0 mm 0.00 in0.0 mm
01:05 PM 72.7°F22.6°C 55.4°F13.0°C 53% 5.7 mph SSW9.2 kmh SSW 10.3 mph16.6 kmh 30.18 in1022.0 mb 0.00 in0.0 mm 0.00 in0.0 mm 0.00 in0.0 mm
01:10 PM 72.5°F22.5°C 55.4°F13.0°C 53% 5.5 mph SSW8.9 kmh SSW 6.5 mph10.5 kmh 30.18 in1022.0 mb 0.00 in0.0 mm 0.00 in0.0 mm 0.00 in0.0 mm
01:15 PM 72.5°F22.5°C 55.4°F13.0°C 53% 6.3 mph S10.1 kmh S 10.1 mph16.3 kmh 30.18 in1022.0 mb 0.00 in0.0 mm 0.00 in0.0 mm 0.00 in0.0 mm
01:20 PM 73.0°F22.8°C 55.4°F13.0°C 52% 6.2 mph S10.0 kmh S 10.1 mph16.3 kmh 30.18 in1022.0 mb 0.00 in0.0 mm 0.00 in0.0 mm 0.00 in0.0 mm
01:25 PM 74.3°F23.5°C 55.4°F13.0°C 51% 5.4 mph SSW8.7 kmh SSW 8.1 mph13.0 kmh 30.18 in1022.0 mb 0.00 in0.0 mm 0.00 in0.0 mm 0.00 in0.0 mm
01:30 PM 75.6°F24.2°C 57.2°F14.0°C 51% 5.6 mph SSW9.0 kmh SSW 8.1 mph13.0 kmh 30.18 in1022.0 mb 0.00 in0.0 mm 0.00 in0.0 mm 0.00 in0.0 mm
01:35 PM 76.3°F24.6°C 57.2°F14.0°C 50% 6.3 mph SW10.1 kmh SW 8.7 mph14.0 kmh 30.18 in1022.0 mb 0.00 in0.0 mm 0.00 in0.0 mm 0.00 in0.0 mm
01:40 PM 75.7°F24.3°C 55.4°F13.0°C 50% 5.8 mph WSW9.3 kmh WSW 8.7 mph14.0 kmh 30.18 in1022.0 mb 0.00 in0.0 mm 0.00 in0.0 mm 0.00 in0.0 mm
01:45 PM 75.7°F24.3°C 55.4°F13.0°C 50% 4.4 mph SSW7.1 kmh SSW 7.6 mph12.2 kmh 30.18 in1022.0 mb 0.00 in0.0 mm 0.00 in0.0 mm 0.00 in0.0 mm
01:50 PM 73.9°F23.3°C 55.4°F13.0°C 50% 5.7 mph SW9.2 kmh SW 10.1 mph16.3 kmh 30.18 in1022.0 mb 0.00 in0.0 mm 0.00 in0.0 mm 0.00 in0.0 mm
01:55 PM 73.0°F22.8°C 53.6°F12.0°C 51% 5.3 mph SW8.5 kmh SW 10.1 mph16.3 kmh 30.18 in1022.0 mb 0.00 in0.0 mm 0.00 in0.0 mm 0.00 in0.0 mm
02:00 PM 73.2°F22.9°C 55.4°F13.0°C 52% 4.2 mph SW6.8 kmh SW 6.3 mph10.1 kmh 30.18 in1022.0 mb 0.00 in0.0 mm 0.00 in0.0 mm 0.00 in0.0 mm
02:05 PM 73.0°F22.8°C 55.4°F13.0°C 52% 4.1 mph SSW6.6 kmh SSW 5.6 mph9.0 kmh 30.18 in1022.0 mb 0.00 in0.0 mm 0.00 in0.0 mm 0.00 in0.0 mm
02:10 PM 73.4°F23.0°C 55.4°F13.0°C 51% 4.4 mph SSW7.1 kmh SSW 7.2 mph11.6 kmh 30.15 in1021.0 mb 0.00 in0.0 mm 0.00 in0.0 mm 0.00 in0.0 mm
02:15 PM 73.6°F23.1°C 53.6°F12.0°C 50% 4.7 mph SW7.6 kmh SW 7.2 mph11.6 kmh 30.15 in1021.0 mb 0.00 in0.0 mm 0.00 in0.0 mm 0.00 in0.0 mm
02:20 PM 73.9°F23.3°C 55.4°F13.0°C 51% 4.3 mph WSW6.9 kmh WSW 5.8 mph9.3 kmh 30.15 in1021.0 mb 0.00 in0.0 mm 0.00 in0.0 mm 0.00 in0.0 mm
02:25 PM 73.6°F23.1°C 53.6°F12.0°C 50% 4.8 mph SW7.7 kmh SW 8.7 mph14.0 kmh 30.15 in1021.0 mb 0.00 in0.0 mm 0.00 in0.0 mm 0.00 in0.0 mm
02:30 PM 72.9°F22.7°C 53.6°F12.0°C 51% 5.0 mph SW8.0 kmh SW 8.7 mph14.0 kmh 30.15 in1021.0 mb 0.00 in0.0 mm 0.00 in0.0 mm 0.00 in0.0 mm
02:35 PM 72.5°F22.5°C 53.6°F12.0°C 51% 5.5 mph SSW8.9 kmh SSW 12.5 mph20.1 kmh 30.15 in1021.0 mb 0.00 in0.0 mm 0.00 in0.0 mm 0.00 in0.0 mm
02:40 PM 72.3°F22.4°C 53.6°F12.0°C 51% 6.4 mph SW10.3 kmh SW 12.5 mph20.1 kmh 30.15 in1021.0 mb 0.00 in0.0 mm 0.00 in0.0 mm 0.00 in0.0 mm
02:45 PM 72.9°F22.7°C 53.6°F12.0°C 51% 5.4 mph SW8.7 kmh SW 8.7 mph14.0 kmh 30.15 in1021.0 mb 0.00 in0.0 mm 0.00 in0.0 mm 0.00 in0.0 mm
02:50 PM 72.9°F22.7°C 53.6°F12.0°C 51% 4.2 mph WSW6.8 kmh WSW 8.7 mph14.0 kmh 30.15 in1021.0 mb 0.00 in0.0 mm 0.00 in0.0 mm 0.00 in0.0 mm
02:55 PM 72.7°F22.6°C 53.6°F12.0°C 51% 4.1 mph WSW6.6 kmh WSW 8.5 mph13.7 kmh 30.15 in1021.0 mb 0.00 in0.0 mm 0.00 in0.0 mm 0.00 in0.0 mm
03:00 PM 72.5°F22.5°C 53.6°F12.0°C 51% 4.5 mph SW7.2 kmh SW 8.5 mph13.7 kmh 30.15 in1021.0 mb 0.00 in0.0 mm 0.00 in0.0 mm 0.00 in0.0 mm
03:05 PM 72.0°F22.2°C 53.6°F12.0°C 51% 4.3 mph SW6.9 kmh SW 6.3 mph10.1 kmh 30.15 in1021.0 mb 0.00 in0.0 mm 0.00 in0.0 mm 0.00 in0.0 mm
03:10 PM 71.6°F22.0°C 53.6°F12.0°C 51% 4.1 mph SW6.6 kmh SW 7.6 mph12.2 kmh 30.15 in1021.0 mb 0.00 in0.0 mm 0.00 in0.0 mm 0.00 in0.0 mm
03:15 PM 71.4°F21.9°C 53.6°F12.0°C 52% 4.5 mph SW7.2 kmh SW 7.6 mph12.2 kmh 30.15 in1021.0 mb 0.00 in0.0 mm 0.00 in0.0 mm 0.00 in0.0 mm
03:20 PM 71.8°F22.1°C 53.6°F12.0°C 51% 3.8 mph SW6.1 kmh SW 7.6 mph12.2 kmh 30.15 in1021.0 mb 0.00 in0.0 mm 0.00 in0.0 mm 0.00 in0.0 mm
03:25 PM 71.6°F22.0°C 53.6°F12.0°C 51% 3.7 mph WSW6.0 kmh WSW 7.6 mph12.2 kmh 30.15 in1021.0 mb 0.00 in0.0 mm 0.00 in0.0 mm 0.00 in0.0 mm
03:30 PM 71.6°F22.0°C 53.6°F12.0°C 52% 4.1 mph WSW6.6 kmh WSW 6.7 mph10.8 kmh 30.15 in1021.0 mb 0.00 in0.0 mm 0.00 in0.0 mm 0.00 in0.0 mm
03:35 PM 71.6°F22.0°C 53.6°F12.0°C 51% 3.5 mph WSW5.6 kmh WSW 5.4 mph8.7 kmh 30.15 in1021.0 mb 0.00 in0.0 mm 0.00 in0.0 mm 0.00 in0.0 mm
03:40 PM 71.4°F21.9°C 53.6°F12.0°C 51% 2.8 mph WSW4.5 kmh WSW 4.3 mph6.9 kmh 30.15 in1021.0 mb 0.00 in0.0 mm 0.00 in0.0 mm 0.00 in0.0 mm
03:45 PM 71.4°F21.9°C 53.6°F12.0°C 52% 2.7 mph WSW4.3 kmh WSW 4.3 mph6.9 kmh 30.15 in1021.0 mb 0.00 in0.0 mm 0.00 in0.0 mm 0.00 in0.0 mm
03:50 PM 70.9°F21.6°C 53.6°F12.0°C 52% 2.9 mph SSE4.7 kmh SSE 4.3 mph6.9 kmh 30.15 in1021.0 mb 0.00 in0.0 mm 0.00 in0.0 mm 0.00 in0.0 mm
03:55 PM 70.5°F21.4°C 51.8°F11.0°C 52% 3.0 mph S4.8 kmh S 5.6 mph9.0 kmh 30.15 in1021.0 mb 0.00 in0.0 mm 0.00 in0.0 mm 0.00 in0.0 mm
04:00 PM 69.8°F21.0°C 51.8°F11.0°C 52% 4.1 mph SW6.6 kmh SW 6.5 mph10.5 kmh 30.15 in1021.0 mb 0.00 in0.0 mm 0.00 in0.0 mm 0.00 in0.0 mm
04:05 PM 69.4°F20.8°C 51.8°F11.0°C 53% 6.4 mph SW10.3 kmh SW 9.8 mph15.8 kmh 30.15 in1021.0 mb 0.00 in0.0 mm 0.00 in0.0 mm 0.00 in0.0 mm
04:10 PM 69.3°F20.7°C 51.8°F11.0°C 53% 5.8 mph SW9.3 kmh SW 9.8 mph15.8 kmh 30.15 in1021.0 mb 0.00 in0.0 mm 0.00 in0.0 mm 0.00 in0.0 mm
04:15 PM 69.1°F20.6°C 51.8°F11.0°C 53% 4.7 mph SW7.6 kmh SW 13.2 mph21.2 kmh 30.15 in1021.0 mb 0.00 in0.0 mm 0.00 in0.0 mm 0.00 in0.0 mm
04:20 PM 68.7°F20.4°C 51.8°F11.0°C 53% 4.7 mph SW7.6 kmh SW 13.2 mph21.2 kmh 30.15 in1021.0 mb 0.00 in0.0 mm 0.00 in0.0 mm 0.00 in0.0 mm
04:25 PM 68.2°F20.1°C 50.0°F10.0°C 53% 4.7 mph SW7.6 kmh SW 8.1 mph13.0 kmh 30.15 in1021.0 mb 0.00 in0.0 mm 0.00 in0.0 mm 0.00 in0.0 mm
04:30 PM 67.8°F19.9°C 51.8°F11.0°C 54% 5.5 mph SSW8.9 kmh SSW 8.1 mph13.0 kmh 30.15 in1021.0 mb 0.00 in0.0 mm 0.00 in0.0 mm 0.00 in0.0 mm
04:35 PM 67.6°F19.8°C 50.0°F10.0°C 54% 5.1 mph S8.2 kmh S 6.5 mph10.5 kmh 30.15 in1021.0 mb 0.00 in0.0 mm 0.00 in0.0 mm 0.00 in0.0 mm
04:40 PM 67.1°F19.5°C 50.0°F10.0°C 55% 4.6 mph S7.4 kmh S 6.5 mph10.5 kmh 30.15 in1021.0 mb 0.00 in0.0 mm 0.00 in0.0 mm 0.00 in0.0 mm
04:45 PM 66.9°F19.4°C 50.0°F10.0°C 56% 4.8 mph S7.7 kmh S 6.5 mph10.5 kmh 30.15 in1021.0 mb 0.00 in0.0 mm 0.00 in0.0 mm 0.00 in0.0 mm
04:50 PM 66.7°F19.3°C 51.8°F11.0°C 57% 4.3 mph S6.9 kmh S 6.5 mph10.5 kmh 30.15 in1021.0 mb 0.00 in0.0 mm 0.00 in0.0 mm 0.00 in0.0 mm
04:55 PM 66.7°F19.3°C 51.8°F11.0°C 57% 4.3 mph SSE6.9 kmh SSE 6.3 mph10.1 kmh 30.15 in1021.0 mb 0.00 in0.0 mm 0.00 in0.0 mm 0.00 in0.0 mm
05:00 PM 66.6°F19.2°C 51.8°F11.0°C 58% 4.9 mph S7.9 kmh S 8.7 mph14.0 kmh 30.15 in1021.0 mb 0.00 in0.0 mm 0.00 in0.0 mm 0.00 in0.0 mm
05:05 PM 66.4°F19.1°C 51.8°F11.0°C 58% 4.1 mph S6.6 kmh S 8.7 mph14.0 kmh 30.15 in1021.0 mb 0.00 in0.0 mm 0.00 in0.0 mm 0.00 in0.0 mm
05:10 PM 66.4°F19.1°C 51.8°F11.0°C 59% 3.2 mph S5.1 kmh S 6.7 mph10.8 kmh 30.15 in1021.0 mb 0.00 in0.0 mm 0.00 in0.0 mm 0.00 in0.0 mm
05:15 PM 66.2°F19.0°C 51.8°F11.0°C 59% 2.9 mph S4.7 kmh S 4.5 mph7.2 kmh 30.15 in1021.0 mb 0.00 in0.0 mm 0.00 in0.0 mm 0.00 in0.0 mm
05:20 PM 66.0°F18.9°C 51.8°F11.0°C 60% 2.5 mph S4.0 kmh S 3.4 mph5.5 kmh 30.15 in1021.0 mb 0.00 in0.0 mm 0.00 in0.0 mm 0.00 in0.0 mm
05:25 PM 65.8°F18.8°C 51.8°F11.0°C 60% 3.1 mph S5.0 kmh S 7.8 mph12.6 kmh 30.15 in1021.0 mb 0.00 in0.0 mm 0.00 in0.0 mm 0.00 in0.0 mm
05:30 PM 65.5°F18.6°C 51.8°F11.0°C 60% 4.1 mph SSW6.6 kmh SSW 7.8 mph12.6 kmh 30.15 in1021.0 mb 0.00 in0.0 mm 0.00 in0.0 mm 0.00 in0.0 mm
05:35 PM 65.1°F18.4°C 51.8°F11.0°C 61% 4.5 mph SW7.2 kmh SW 6.5 mph10.5 kmh 30.15 in1021.0 mb 0.00 in0.0 mm 0.00 in0.0 mm 0.00 in0.0 mm
05:40 PM 64.6°F18.1°C 50.0°F10.0°C 61% 4.9 mph WSW7.9 kmh WSW 6.5 mph10.5 kmh 30.15 in1021.0 mb 0.00 in0.0 mm 0.00 in0.0 mm 0.00 in0.0 mm
05:45 PM 64.4°F18.0°C 51.8°F11.0°C 62% 3.9 mph WSW6.3 kmh WSW 6.5 mph10.5 kmh 30.15 in1021.0 mb 0.00 in0.0 mm 0.00 in0.0 mm 0.00 in0.0 mm
05:50 PM 64.2°F17.9°C 51.8°F11.0°C 63% 2.8 mph SW4.5 kmh SW 4.7 mph7.6 kmh 30.15 in1021.0 mb 0.00 in0.0 mm 0.00 in0.0 mm 0.00 in0.0 mm
05:55 PM 64.2°F17.9°C 51.8°F11.0°C 63% 1.7 mph SW2.7 kmh SW 4.0 mph6.4 kmh 30.12 in1020.0 mb 0.00 in0.0 mm 0.00 in0.0 mm 0.00 in0.0 mm
06:00 PM 64.0°F17.8°C 51.8°F11.0°C 64% 1.6 mph SSW2.6 kmh SSW 3.4 mph5.5 kmh 30.12 in1020.0 mb 0.00 in0.0 mm 0.00 in0.0 mm 0.00 in0.0 mm
06:05 PM 64.0°F17.8°C 51.8°F11.0°C 63% 1.5 mph SW2.4 kmh SW 3.4 mph5.5 kmh 30.12 in1020.0 mb 0.00 in0.0 mm 0.00 in0.0 mm 0.00 in0.0 mm
06:10 PM 64.0°F17.8°C 51.8°F11.0°C 64% 1.3 mph SSW2.1 kmh SSW 3.4 mph5.5 kmh 30.15 in1021.0 mb 0.00 in0.0 mm 0.00 in0.0 mm 0.00 in0.0 mm
06:15 PM 63.9°F17.7°C 51.8°F11.0°C 64% 1.7 mph S2.7 kmh S 3.8 mph6.1 kmh 30.15 in1021.0 mb 0.00 in0.0 mm 0.00 in0.0 mm 0.00 in0.0 mm
06:20 PM 63.9°F17.7°C 51.8°F11.0°C 65% 2.0 mph SSW3.2 kmh SSW 3.8 mph6.1 kmh 30.15 in1021.0 mb 0.00 in0.0 mm 0.00 in0.0 mm 0.00 in0.0 mm
06:25 PM 63.9°F17.7°C 51.8°F11.0°C 65% 1.3 mph SW2.1 kmh SW 3.6 mph5.8 kmh 30.12 in1020.0 mb 0.00 in0.0 mm 0.00 in0.0 mm 0.00 in0.0 mm
06:30 PM 63.9°F17.7°C 51.8°F11.0°C 65% 1.2 mph S1.9 kmh S 3.6 mph5.8 kmh 30.12 in1020.0 mb 0.00 in0.0 mm 0.00 in0.0 mm 0.00 in0.0 mm
06:35 PM 63.7°F17.6°C 51.8°F11.0°C 65% 1.8 mph S2.9 kmh S 3.4 mph5.5 kmh 30.12 in1020.0 mb 0.00 in0.0 mm 0.00 in0.0 mm 0.00 in0.0 mm
06:40 PM 63.5°F17.5°C 51.8°F11.0°C 65% 2.5 mph S4.0 kmh S 4.3 mph6.9 kmh 30.12 in1020.0 mb 0.00 in0.0 mm 0.00 in0.0 mm 0.00 in0.0 mm
06:45 PM 63.5°F17.5°C 51.8°F11.0°C 66% 2.9 mph S4.7 kmh S 4.3 mph6.9 kmh 30.12 in1020.0 mb 0.00 in0.0 mm 0.00 in0.0 mm 0.00 in0.0 mm
06:50 PM 63.5°F17.5°C 51.8°F11.0°C 66% 2.9 mph S4.7 kmh S 4.3 mph6.9 kmh 30.12 in1020.0 mb 0.00 in0.0 mm 0.00 in0.0 mm 0.00 in0.0 mm
06:55 PM 63.3°F17.4°C 51.8°F11.0°C 66% 3.0 mph S4.8 kmh S 4.0 mph6.4 kmh 30.12 in1020.0 mb 0.00 in0.0 mm 0.00 in0.0 mm 0.00 in0.0 mm
07:00 PM 63.3°F17.4°C 51.8°F11.0°C 66% 3.5 mph S5.6 kmh S 4.9 mph7.9 kmh 30.12 in1020.0 mb 0.00 in0.0 mm 0.00 in0.0 mm 0.00 in0.0 mm
07:05 PM 63.1°F17.3°C 51.8°F11.0°C 66% 3.1 mph S5.0 kmh S 4.9 mph7.9 kmh 30.12 in1020.0 mb 0.00 in0.0 mm 0.00 in0.0 mm 0.00 in0.0 mm
07:10 PM 63.0°F17.2°C 51.8°F11.0°C 66% 3.1 mph S5.0 kmh S 4.3 mph6.9 kmh 30.12 in1020.0 mb 0.00 in0.0 mm 0.00 in0.0 mm 0.00 in0.0 mm
07:15 PM 63.0°F17.2°C 51.8°F11.0°C 66% 4.0 mph S6.4 kmh S 6.5 mph10.5 kmh 30.12 in1020.0 mb 0.00 in0.0 mm 0.00 in0.0 mm 0.00 in0.0 mm
07:20 PM 62.8°F17.1°C 51.8°F11.0°C 65% 4.1 mph S6.6 kmh S 6.5 mph10.5 kmh 30.12 in1020.0 mb 0.00 in0.0 mm 0.00 in0.0 mm 0.00 in0.0 mm
07:25 PM 62.8°F17.1°C 51.8°F11.0°C 65% 3.2 mph S5.1 kmh S 4.7 mph7.6 kmh 30.12 in1020.0 mb 0.00 in0.0 mm 0.00 in0.0 mm 0.00 in0.0 mm
07:30 PM 62.8°F17.1°C 50.0°F10.0°C 64% 3.6 mph SSW5.8 kmh SSW 7.2 mph11.6 kmh 30.12 in1020.0 mb 0.00 in0.0 mm 0.00 in0.0 mm 0.00 in0.0 mm
07:35 PM 63.0°F17.2°C 51.8°F11.0°C 64% 5.9 mph SW9.5 kmh SW 14.5 mph23.3 kmh 30.12 in1020.0 mb 0.00 in0.0 mm 0.00 in0.0 mm 0.00 in0.0 mm
07:40 PM 63.0°F17.2°C 51.8°F11.0°C 64% 6.3 mph SW10.1 kmh SW 14.5 mph23.3 kmh 30.12 in1020.0 mb 0.00 in0.0 mm 0.00 in0.0 mm 0.00 in0.0 mm
07:45 PM 62.8°F17.1°C 50.0°F10.0°C 64% 5.3 mph SW8.5 kmh SW 14.5 mph23.3 kmh 30.12 in1020.0 mb 0.00 in0.0 mm 0.00 in0.0 mm 0.00 in0.0 mm
07:50 PM 62.6°F17.0°C 50.0°F10.0°C 64% 4.2 mph S6.8 kmh S 7.2 mph11.6 kmh 30.12 in1020.0 mb 0.00 in0.0 mm 0.00 in0.0 mm 0.00 in0.0 mm
07:55 PM 62.6°F17.0°C 50.0°F10.0°C 64% 4.4 mph S7.1 kmh S 7.2 mph11.6 kmh 30.12 in1020.0 mb 0.00 in0.0 mm 0.00 in0.0 mm 0.00 in0.0 mm
08:00 PM 62.4°F16.9°C 51.8°F11.0°C 66% 4.1 mph S6.6 kmh S 6.3 mph10.1 kmh 30.12 in1020.0 mb 0.00 in0.0 mm 0.00 in0.0 mm 0.00 in0.0 mm
08:05 PM 62.4°F16.9°C 51.8°F11.0°C 66% 4.3 mph S6.9 kmh S 7.4 mph11.9 kmh 30.12 in1020.0 mb 0.00 in0.0 mm 0.00 in0.0 mm 0.00 in0.0 mm
08:10 PM 62.4°F16.9°C 51.8°F11.0°C 65% 4.6 mph S7.4 kmh S 9.2 mph14.8 kmh 30.12 in1020.0 mb 0.00 in0.0 mm 0.00 in0.0 mm 0.00 in0.0 mm
08:15 PM 62.6°F17.0°C 50.0°F10.0°C 64% 6.1 mph SSW9.8 kmh SSW 10.7 mph17.2 kmh 30.12 in1020.0 mb 0.00 in0.0 mm 0.00 in0.0 mm 0.00 in0.0 mm
08:20 PM 62.6°F17.0°C 50.0°F10.0°C 63% 6.7 mph SSW10.8 kmh SSW 10.7 mph17.2 kmh 30.12 in1020.0 mb 0.00 in0.0 mm 0.00 in0.0 mm 0.00 in0.0 mm
08:25 PM 62.4°F16.9°C 50.0°F10.0°C 64% 5.1 mph S8.2 kmh S 8.7 mph14.0 kmh 30.12 in1020.0 mb 0.00 in0.0 mm 0.00 in0.0 mm 0.00 in0.0 mm
08:30 PM 62.4°F16.9°C 50.0°F10.0°C 64% 4.4 mph SSW7.1 kmh SSW 6.5 mph10.5 kmh 30.12 in1020.0 mb 0.00 in0.0 mm 0.00 in0.0 mm 0.00 in0.0 mm
08:35 PM 62.4°F16.9°C 50.0°F10.0°C 64% 4.3 mph SSW6.9 kmh SSW 5.8 mph9.3 kmh 30.12 in1020.0 mb 0.00 in0.0 mm 0.00 in0.0 mm 0.00 in0.0 mm
08:40 PM 62.2°F16.8°C 50.0°F10.0°C 65% 5.0 mph SSW8.0 kmh SSW 8.5 mph13.7 kmh 30.12 in1020.0 mb 0.00 in0.0 mm 0.00 in0.0 mm 0.00 in0.0 mm
08:45 PM 62.2°F16.8°C 50.0°F10.0°C 65% 4.9 mph SSW7.9 kmh SSW 8.5 mph13.7 kmh 30.12 in1020.0 mb 0.00 in0.0 mm 0.00 in0.0 mm 0.00 in0.0 mm
08:50 PM 62.1°F16.7°C 50.0°F10.0°C 65% 4.1 mph SSW6.6 kmh SSW 6.9 mph11.1 kmh 30.12 in1020.0 mb 0.00 in0.0 mm 0.00 in0.0 mm 0.00 in0.0 mm
08:55 PM 62.1°F16.7°C 50.0°F10.0°C 65% 3.8 mph S6.1 kmh S 6.5 mph10.5 kmh 30.12 in1020.0 mb 0.00 in0.0 mm 0.00 in0.0 mm 0.00 in0.0 mm
09:00 PM 61.9°F16.6°C 50.0°F10.0°C 65% 3.3 mph S5.3 kmh S 6.5 mph10.5 kmh 30.12 in1020.0 mb 0.00 in0.0 mm 0.00 in0.0 mm 0.00 in0.0 mm
09:05 PM 61.9°F16.6°C 50.0°F10.0°C 66% 3.1 mph SSE5.0 kmh SSE 6.5 mph10.5 kmh 30.12 in1020.0 mb 0.00 in0.0 mm 0.00 in0.0 mm 0.00 in0.0 mm
09:10 PM 61.7°F16.5°C 50.0°F10.0°C 66% 3.1 mph SSE5.0 kmh SSE 4.9 mph7.9 kmh 30.12 in1020.0 mb 0.00 in0.0 mm 0.00 in0.0 mm 0.00 in0.0 mm
09:15 PM 61.7°F16.5°C 50.0°F10.0°C 66% 3.9 mph S6.3 kmh S 6.0 mph9.7 kmh 30.12 in1020.0 mb 0.00 in0.0 mm 0.00 in0.0 mm 0.00 in0.0 mm
09:20 PM 61.5°F16.4°C 50.0°F10.0°C 66% 4.0 mph S6.4 kmh S 6.0 mph9.7 kmh 30.12 in1020.0 mb 0.00 in0.0 mm 0.00 in0.0 mm 0.00 in0.0 mm
09:25 PM 61.3°F16.3°C 50.0°F10.0°C 67% 3.3 mph S5.3 kmh S 4.7 mph7.6 kmh 30.12 in1020.0 mb 0.00 in0.0 mm 0.00 in0.0 mm 0.00 in0.0 mm
09:30 PM 61.3°F16.3°C 50.0°F10.0°C 66% 3.4 mph S5.5 kmh S 5.8 mph9.3 kmh 30.12 in1020.0 mb 0.00 in0.0 mm 0.00 in0.0 mm 0.00 in0.0 mm
09:35 PM 61.2°F16.2°C 50.0°F10.0°C 67% 4.2 mph S6.8 kmh S 6.5 mph10.5 kmh 30.12 in1020.0 mb 0.00 in0.0 mm 0.00 in0.0 mm 0.00 in0.0 mm
09:40 PM 61.0°F16.1°C 50.0°F10.0°C 67% 4.3 mph S6.9 kmh S 6.5 mph10.5 kmh 30.09 in1019.0 mb 0.00 in0.0 mm 0.00 in0.0 mm 0.00 in0.0 mm
09:45 PM 61.0°F16.1°C 50.0°F10.0°C 67% 4.3 mph S6.9 kmh S 8.5 mph13.7 kmh 30.09 in1019.0 mb 0.00 in0.0 mm 0.00 in0.0 mm 0.00 in0.0 mm
09:50 PM 60.8°F16.0°C 50.0°F10.0°C 67% 4.5 mph S7.2 kmh S 8.5 mph13.7 kmh 30.09 in1019.0 mb 0.00 in0.0 mm 0.00 in0.0 mm 0.00 in0.0 mm
09:55 PM 60.8°F16.0°C 50.0°F10.0°C 67% 4.0 mph S6.4 kmh S 5.4 mph8.7 kmh 30.12 in1020.0 mb 0.00 in0.0 mm 0.00 in0.0 mm 0.00 in0.0 mm
10:00 PM 60.8°F16.0°C 50.0°F10.0°C 67% 3.5 mph S5.6 kmh S 7.2 mph11.6 kmh 30.12 in1020.0 mb 0.00 in0.0 mm 0.00 in0.0 mm 0.00 in0.0 mm
10:05 PM 60.6°F15.9°C 50.0°F10.0°C 67% 3.6 mph S5.8 kmh S 7.2 mph11.6 kmh 30.12 in1020.0 mb 0.00 in0.0 mm 0.00 in0.0 mm 0.00 in0.0 mm
10:10 PM 60.6°F15.9°C 50.0°F10.0°C 67% 4.4 mph S7.1 kmh S 5.8 mph9.3 kmh 30.12 in1020.0 mb 0.00 in0.0 mm 0.00 in0.0 mm 0.00 in0.0 mm
10:15 PM 60.6°F15.9°C 50.0°F10.0°C 66% 5.1 mph S8.2 kmh S 7.6 mph12.2 kmh 30.12 in1020.0 mb 0.00 in0.0 mm 0.00 in0.0 mm 0.00 in0.0 mm
10:20 PM 60.6°F15.9°C 50.0°F10.0°C 67% 4.6 mph S7.4 kmh S 7.6 mph12.2 kmh 30.12 in1020.0 mb 0.00 in0.0 mm 0.00 in0.0 mm 0.00 in0.0 mm
10:25 PM 60.4°F15.8°C 50.0°F10.0°C 67% 4.2 mph S6.8 kmh S 6.0 mph9.7 kmh 30.09 in1019.0 mb 0.00 in0.0 mm 0.00 in0.0 mm 0.00 in0.0 mm
10:30 PM 60.4°F15.8°C 50.0°F10.0°C 67% 5.0 mph S8.0 kmh S 8.1 mph13.0 kmh 30.09 in1019.0 mb 0.00 in0.0 mm 0.00 in0.0 mm 0.00 in0.0 mm
10:35 PM 60.6°F15.9°C 50.0°F10.0°C 67% 5.1 mph S8.2 kmh S 8.1 mph13.0 kmh 30.09 in1019.0 mb 0.00 in0.0 mm 0.00 in0.0 mm 0.00 in0.0 mm
10:40 PM 60.6°F15.9°C 50.0°F10.0°C 66% 4.9 mph S7.9 kmh S 8.1 mph13.0 kmh 30.09 in1019.0 mb 0.00 in0.0 mm 0.00 in0.0 mm 0.00 in0.0 mm
10:45 PM 60.6°F15.9°C 50.0°F10.0°C 66% 5.0 mph S8.0 kmh S 8.7 mph14.0 kmh 30.09 in1019.0 mb 0.00 in0.0 mm 0.00 in0.0 mm 0.00 in0.0 mm
10:50 PM 60.4°F15.8°C 50.0°F10.0°C 67% 4.8 mph S7.7 kmh S 8.7 mph14.0 kmh 30.09 in1019.0 mb 0.00 in0.0 mm 0.00 in0.0 mm 0.00 in0.0 mm
10:55 PM 60.4°F15.8°C 50.0°F10.0°C 67% 3.9 mph S6.3 kmh S 6.9 mph11.1 kmh 30.09 in1019.0 mb 0.00 in0.0 mm 0.00 in0.0 mm 0.00 in0.0 mm
11:00 PM 60.4°F15.8°C 48.2°F9.0°C 66% 4.5 mph S7.2 kmh S 7.4 mph11.9 kmh 30.09 in1019.0 mb 0.00 in0.0 mm 0.00 in0.0 mm 0.00 in0.0 mm
11:05 PM 60.4°F15.8°C 50.0°F10.0°C 67% 4.1 mph S6.6 kmh S 7.4 mph11.9 kmh 30.09 in1019.0 mb 0.00 in0.0 mm 0.00 in0.0 mm 0.00 in0.0 mm
11:10 PM 60.4°F15.8°C 50.0°F10.0°C 67% 3.6 mph S5.8 kmh S 5.8 mph9.3 kmh 30.09 in1019.0 mb 0.00 in0.0 mm 0.00 in0.0 mm 0.00 in0.0 mm
11:15 PM 60.4°F15.8°C 50.0°F10.0°C 67% 3.1 mph S5.0 kmh S 5.4 mph8.7 kmh 30.09 in1019.0 mb 0.00 in0.0 mm 0.00 in0.0 mm 0.00 in0.0 mm
11:20 PM 60.3°F15.7°C 50.0°F10.0°C 67% 2.9 mph S4.7 kmh S 4.7 mph7.6 kmh 30.09 in1019.0 mb 0.00 in0.0 mm 0.00 in0.0 mm 0.00 in0.0 mm
11:25 PM 60.3°F15.7°C 50.0°F10.0°C 67% 3.1 mph S5.0 kmh S 3.8 mph6.1 kmh 30.09 in1019.0 mb 0.00 in0.0 mm 0.00 in0.0 mm 0.00 in0.0 mm
11:30 PM 60.3°F15.7°C 50.0°F10.0°C 67% 3.1 mph SSE5.0 kmh SSE 4.7 mph7.6 kmh 30.09 in1019.0 mb 0.00 in0.0 mm 0.00 in0.0 mm 0.00 in0.0 mm
11:35 PM 60.3°F15.7°C 50.0°F10.0°C 67% 3.3 mph SSE5.3 kmh SSE 4.7 mph7.6 kmh 30.09 in1019.0 mb 0.00 in0.0 mm 0.00 in0.0 mm 0.00 in0.0 mm
11:40 PM 60.3°F15.7°C 50.0°F10.0°C 67% 3.6 mph S5.8 kmh S 6.0 mph9.7 kmh 30.09 in1019.0 mb 0.00 in0.0 mm 0.00 in0.0 mm 0.00 in0.0 mm
11:45 PM 60.3°F15.7°C 50.0°F10.0°C 67% 3.9 mph S6.3 kmh S 6.0 mph9.7 kmh 30.09 in1019.0 mb 0.00 in0.0 mm 0.00 in0.0 mm 0.00 in0.0 mm
11:50 PM 60.3°F15.7°C 50.0°F10.0°C 67% 3.2 mph SSE5.1 kmh SSE 5.6 mph9.0 kmh 30.09 in1019.0 mb 0.00 in0.0 mm 0.00 in0.0 mm 0.00 in0.0 mm
11:55 PM 60.1°F15.6°C 50.0°F10.0°C 67% 3.1 mph SSE5.0 kmh SSE 5.6 mph9.0 kmh 30.09 in1019.0 mb 0.00 in0.0 mm 0.00 in0.0 mm 0.00 in0.0 mm